Flag for Germany Weather past 2 weeks in Göttingen, Lower Saxony, Germany

Now
57 °F

Partly sunny.


Feels Like: 55 °F
Forecast: 53 / 62 °F
Wind: 12 mph from Southwest

Location: Fritzlar Airport

Current Time: Jul 8, 2015 at 7:01:20 AM

Latest Report: Jul 8, 2015 at 6:20 AM


Visibility: N/A

Pressure: 29.80 "Hg

Humidity: 77%

Dew point: 50 °F

Location of GöttingenLocation

Historic Weather in Göttingen — Graph

°F

Göttingen temperature yesterday

Maximum temperature yesterday: 90 °F (at 3:20 PM)
Minimum temperature yesterday: 54 °F (at 4:20 AM)
Average temperature yesterday: 70 °F

Past Weeks' High & Low Weather Summary

 TemperatureHumidityPressure
High97 °F (Jul 4, 2:20 PM)100% (Jun 25, 3:20 AM)30.27 "Hg (Jun 25, 3:20 AM)
Low45 °F (Jun 25, 3:20 AM)28% (Jul 4, 3:20 PM)29.71 "Hg (Jul 7, 5:20 PM)
Average69 °F66%30.09 "Hg
* Reported Jun 23 5:20 AM — Jul 8 5:20 AM, Göttingen, Weather by CustomWeather, © 2015

Note: Actual official high and low records may vary slightly from our data, if they occured in-between our weather recording intervals... More about our weather records

Advertising

Göttingen weather history for previous 24 hours

 ConditionsComfort  
Time TempWeatherWind HumidityBarometerVisibility
5:20 AM
Wed, Jul 8
57 °FPassing clouds.9 mph82%29.80 "HgN/A
4:20 AM61 °FPassing clouds.14 mph77%29.80 "HgN/A
3:20 AM64 °FPassing clouds.10 mph83%29.77 "HgN/A
2:20 AM64 °FPassing clouds.7 mph83%29.77 "HgN/A
1:20 AM63 °FPassing clouds.9 mph94%29.74 "HgN/A
12:20 AM64 °FPassing clouds.9 mph88%29.74 "HgN/A
11:20 PM
Tue, Jul 7
63 °FPassing clouds.6 mph94%29.74 "HgN/A
10:20 PM66 °FScattered clouds.3 mph88%29.74 "HgN/A
9:20 PM68 °FScattered showers. Scattered clouds.3 mph88%29.71 "HgN/A
8:20 PM70 °FSprinkles. Partly sunny.6 mph83%29.74 "HgN/A
7:49 PM68 °FThunderstorms. Partly sunny.9 mph94%29.74 "Hg5 mi
7:20 PM70 °FMostly cloudy.7 mph88%29.74 "HgN/A
6:20 PM68 °FStrong thunderstorms. Partly sunny.10 mph94%29.77 "HgN/A
6:01 PM81 °FStrong thunderstorms. Partly sunny.17 mph48%29.83 "Hg1 mi
5:20 PM90 °FBroken clouds.16 mph31%29.71 "HgN/A
4:20 PM90 °FPartly sunny.8 mph33%29.77 "HgN/A
3:20 PM90 °FPartly sunny.12 mph29%29.77 "HgN/A
2:20 PM88 °FScattered clouds.10 mph29%29.83 "HgN/A
1:20 PM86 °FPassing clouds.13 mph29%29.83 "HgN/A
12:20 PM84 °FPassing clouds.10 mph33%29.89 "HgN/A
11:20 AM79 °FPassing clouds.6 mph42%29.92 "HgN/A
10:20 AM73 °FPassing clouds.2 mph50%29.95 "HgN/A
9:20 AM68 °FScattered clouds.2 mph64%29.95 "HgN/A
8:20 AM64 °FPassing clouds.1 mph73%29.98 "HgN/A
7:20 AM59 °FPassing clouds.1 mph82%30.01 "HgN/A
Weather by CustomWeather, © 2015

See weather overviewHow to use our weather pages